Location: Siloam Springs
(36.1881°N, 94.5403°W)
Time: 12:29:59
(UTC-05:00)

BUGSAT 1 - Visible Passes

Search period start: 28 May 2024 00:00
Search period end: 07 June 2024 00:00
Orbit: 531 x 580 km, 98.1° (Epoch: 27 May)

Date Brightness Start Highest point End Pass type
(mag) Time Alt. Az. Time Alt. Az. Time Alt. Az.
28 May ? 21:43:32 10° SSW 21:47:08 29° W 21:50:45 10° NW visible
29 May ? 21:40:47 10° SSW 21:44:27 32° W 21:48:08 10° NW visible
30 May ? 21:38:00 10° SSW 21:41:45 34° W 21:45:30 10° NNW visible
31 May ? 21:35:15 10° SSW 21:39:03 37° W 21:42:51 10° NNW visible
01 Jun ? 21:32:28 10° S 21:36:20 41° W 21:40:12 10° NNW visible
02 Jun ? 21:29:42 10° S 21:33:37 44° W 21:37:32 10° NNW visible
03 Jun ? 21:26:56 10° S 21:30:54 48° W 21:34:51 10° NNW visible
04 Jun ? 21:24:10 10° S 21:28:09 53° W 21:32:09 10° NNW visible
05 Jun ? 21:21:24 10° S 21:25:25 58° WSW 21:29:25 10° NNW visible
06 Jun ? 21:18:37 10° S 21:22:40 64° W 21:26:41 10° NNW visible
